Location: Ostrava
(49.8330°N, 18.2830°E)
Time: 20:44:52
(UTC+01:00)

NOAA 19 - Visible Passes

Search period start: 26 February 2017 00:00
Search period end: 08 March 2017 00:00
Orbit: 842 x 861 km, 99.1° (Epoch: 26 February)

Date Brightness Start Highest point End Pass type
(mag) Time Alt. Az. Time Alt. Az. Time Alt. Az.
26 Feb 7.2 02:17:38 10° NE 02:20:58 24° ENE 02:20:58 24° ENE visible
26 Feb 5.3 03:57:49 10° N 04:03:01 57° WNW 04:03:01 57° WNW visible
26 Feb 7.0 05:40:37 10° NNW 05:42:49 12° NW 05:45:02 10° WNW visible
27 Feb 7.4 02:06:28 10° NE 02:09:32 20° ENE 02:09:32 20° ENE visible
27 Feb 5.2 03:46:18 10° NNE 03:51:34 68° NW 03:51:34 68° NW visible
27 Feb 6.9 05:28:37 10° NNW 05:31:34 15° NW 05:33:36 12° WNW visible
28 Feb 7.6 01:55:27 10° NE 01:58:04 16° ENE 01:58:04 16° ENE visible
28 Feb 5.1 03:34:49 10° NNE 03:40:07 80° NNW 03:40:07 80° NNW visible
28 Feb 6.7 05:16:46 10° NNW 05:20:18 18° NW 05:22:09 15° WNW visible
01 Mar 7.8 01:44:37 10° NE 01:46:37 13° ENE 01:46:37 13° ENE visible
01 Mar 5.2 03:23:22 10° NNE 03:28:40 78° ENE 03:28:40 78° ENE visible
01 Mar 6.5 05:05:02 10° N 05:09:00 21° NW 05:10:42 18° WNW visible
02 Mar 8.0 01:34:25 10° ENE 01:35:10 11° ENE 01:35:10 11° ENE visible
02 Mar 5.5 03:11:56 10° NNE 03:17:12 66° E 03:17:12 66° E visible
02 Mar 6.3 04:53:20 10° N 04:57:42 24° WNW 04:59:15 22° W visible
03 Mar 5.8 03:00:32 10° NNE 03:05:45 54° E 03:05:45 54° E visible
03 Mar 6.1 04:41:42 10° N 04:46:22 29° WNW 04:47:47 26° W visible
04 Mar 6.1 02:49:10 10° NNE 02:54:18 44° E 02:54:18 44° E visible
04 Mar 5.9 04:30:05 10° N 04:35:01 34° WNW 04:36:21 30° W visible
05 Mar 6.4 02:37:49 10° NNE 02:42:51 36° E 02:42:51 36° E visible
05 Mar 5.6 04:18:30 10° N 04:23:39 41° WNW 04:24:54 36° W visible
06 Mar 6.7 02:26:33 10° NE 02:31:21 29° E 02:31:24 29° E visible
06 Mar 5.4 04:06:57 10° N 04:12:16 50° WNW 04:13:26 43° WSW visible
07 Mar 7.0 02:15:20 10° NE 02:19:46 24° E 02:19:58 24° E visible
07 Mar 5.2 03:55:26 10° N 04:00:52 60° WNW 04:02:00 50° WSW visible
07 Mar 7.0 05:38:05 10° NNW 05:40:30 13° NW 05:42:54 10° WNW visible
